Weather History for KPOV - November, 2013

Change the Weather History Date:

Thursday, November 21, 2013

  Actual Average (KCAK) Record (KCAK)
Temperature  
Mean Temperature 38 °F 40 °F  
Max Temperature 42 °F 47 °F 73 °F (1906)
Min Temperature 34 °F 32 °F 13 °F (1964)
Degree Days  
Heating Degree Days 28 25  
Month to date heating degree days 456  
Since 1 July heating degree days 1011  
Cooling Degree Days 0 0  
Month to date cooling degree days 0  
Year to date cooling degree days 652  
Moisture  
Dew Point 31 °F    
Average Humidity 77    
Maximum Humidity 100    
Minimum Humidity 41    
Precipitation  
Precipitation 0.06 in 0.12 in - ()
Month to date precipitation 2.31  
Year to date precipitation 35.79  
Snow  
Snow 0.00 in 0.10 in - ()
Month to date snowfall 1.6  
Since 1 July snowfall 2.0  
Since 1 September snowfall 2.0  
Snow Depth -    
Sea Level Pressure  
Sea Level Pressure 30.31 in    
Wind  
Wind Speed 5 mph (ESE)    
Max Wind Speed 8 mph    
Max Gust Speed -    
Visibility 10 miles    
Events Rain    
T = Trace of Precipitation, MM = Missing Value Source: NWS Daily Summary

Daily Weather History Graph

Daily Weather History Graph

Search for Another Location

Airport or City:

Trip Planner

Search our weather history database for the weather conditions in past years. The results will help you decide how hot, cold, wet, or windy it might be!

Date:

Astronomy

Nov. 21, 2013 Rise Set
Actual Time 7:20 AM EST 5:01 PM EST
Civil Twilight 6:50 AM EST 5:31 PM EST
Nautical Twilight 6:16 AM EST 6:04 PM EST
Astronomical Twilight 5:43 AM EST 6:37 PM EST
Moon 8:37 PM EST (11/21) 10:25 AM EST (11/21)
Length of Visible Light 10h 41m
Length of Day
9h 40m
Waning Gibbous, 85% of the Moon is Illuminated
Nov 21
Waning Gibbous
Nov 25
Last Quarter
Dec 2
New
Dec 9
First Quarter
Dec 17
Full

Hourly Weather History & Observations

Time (EST) Temp. Windchill Dew Point Humidity Pressure Visibility Wind Dir Wind Speed Gust Speed Precip Events Conditions
12:14 AM 36.5 °F 31.0 °F 14.9 °F 41% 30.32 in 10.0 mi ESE 6.9 mph - N/A   Clear
12:34 AM 36.9 °F 32.2 °F 14.9 °F 41% 30.32 in 10.0 mi SE 5.8 mph - N/A   Clear
12:54 AM 36.9 °F 33.1 °F 15.4 °F 42% 30.33 in 10.0 mi SE 4.6 mph - N/A   Clear
1:14 AM 36.7 °F 32.9 °F 15.6 °F 42% 30.34 in 10.0 mi SE 4.6 mph - N/A   Clear
1:34 AM 36.5 °F 31.8 °F 15.4 °F 42% 30.34 in 10.0 mi SE 5.8 mph - N/A   Clear
1:53 AM 36.5 °F 33.9 °F 15.8 °F 43% 30.35 in 10.0 mi SE 3.5 mph - N/A   Clear
2:14 AM 36.9 °F 32.2 °F 16.0 °F 43% 30.36 in 10.0 mi SE 5.8 mph - N/A   Scattered Clouds
2:34 AM 36.5 °F 32.7 °F 16.9 °F 45% 30.35 in 10.0 mi ESE 4.6 mph - N/A   Clear
2:54 AM 36.5 °F 31.8 °F 16.5 °F 44% 30.35 in 10.0 mi ESE 5.8 mph - N/A   Clear
3:14 AM 36.0 °F 31.1 °F 17.2 °F 47% 30.35 in 10.0 mi SE 5.8 mph - N/A   Clear
3:34 AM 36.1 °F 32.3 °F 16.9 °F 46% 30.35 in 10.0 mi SE 4.6 mph - N/A   Scattered Clouds
3:54 AM 36.5 °F 31.8 °F 17.1 °F 45% 30.34 in 10.0 mi ESE 5.8 mph - N/A   Mostly Cloudy
4:14 AM 36.5 °F 32.7 °F 17.6 °F 46% 30.34 in 10.0 mi ESE 4.6 mph - N/A   Overcast
4:34 AM 36.5 °F 31.8 °F 17.8 °F 47% 30.34 in 10.0 mi ESE 5.8 mph - N/A   Overcast
4:54 AM 36.5 °F 31.8 °F 18.5 °F 48% 30.35 in 10.0 mi SE 5.8 mph - N/A   Overcast
5:14 AM 36.5 °F 32.7 °F 18.5 °F 48% 30.35 in 10.0 mi SE 4.6 mph - N/A   Overcast
5:34 AM 36.5 °F 31.0 °F 18.7 °F 49% 30.35 in 10.0 mi SE 6.9 mph - N/A   Overcast
5:54 AM 36.5 °F 31.8 °F 19.2 °F 50% 30.35 in 10.0 mi SE 5.8 mph - N/A   Overcast
6:14 AM 36.9 °F 31.4 °F 19.2 °F 49% 30.36 in 10.0 mi SE 6.9 mph - N/A   Overcast
6:34 AM 36.9 °F - 19.6 °F 50% 30.37 in 10.0 mi Calm Calm - N/A   Overcast
6:54 AM 37.4 °F - 19.4 °F 48% 30.38 in 10.0 mi Calm Calm - N/A   Overcast
7:14 AM 37.4 °F 34.9 °F 20.1 °F 50% 30.37 in 10.0 mi SE 3.5 mph - N/A   Overcast
7:34 AM 37.4 °F 33.8 °F 20.8 °F 51% 30.37 in 10.0 mi SE 4.6 mph - N/A   Overcast
7:54 AM 36.9 °F 34.3 °F 23.9 °F 59% 30.37 in 10.0 mi SE 3.5 mph - N/A Rain Rain
8:14 AM 36.3 °F 33.7 °F 25.7 °F 65% 30.37 in 10.0 mi SE 3.5 mph - N/A Rain Rain
8:34 AM 35.6 °F 30.7 °F 28.4 °F 75% 30.36 in 10.0 mi SE 5.8 mph - N/A   Drizzle
8:53 AM 35.2 °F 31.2 °F 28.9 °F 78% 30.36 in 10.0 mi SE 4.6 mph - N/A Rain Light Rain
9:14 AM 34.9 °F 30.8 °F 30.2 °F 83% 30.35 in 10.0 mi SE 4.6 mph - 0.01 in   Drizzle
9:34 AM 34.7 °F 30.6 °F 30.9 °F 86% 30.34 in 10.0 mi ESE 4.6 mph - 0.01 in Rain Light Rain
9:54 AM 34.9 °F 32.0 °F 31.6 °F 88% 30.35 in 10.0 mi SSE 3.5 mph - 0.02 in Rain Rain
10:14 AM 35.4 °F 31.5 °F 32.0 °F 87% 30.35 in 10.0 mi SE 4.6 mph - N/A   Light Drizzle
10:34 AM 35.8 °F 33.0 °F 33.1 °F 90% 30.36 in 10.0 mi SE 3.5 mph - N/A   Drizzle
10:54 AM 36.1 °F - 34.7 °F 94% 30.36 in 10.0 mi Calm Calm - N/A Rain Light Rain
11:14 AM 37.2 °F - 35.6 °F 94% 30.37 in 10.0 mi Calm Calm - N/A   Light Drizzle
11:34 AM 37.2 °F 34.7 °F 34.0 °F 88% 30.36 in 10.0 mi South 3.5 mph - N/A   Drizzle
11:54 AM 37.4 °F 33.8 °F 34.5 °F 89% 30.35 in 10.0 mi South 4.6 mph - 0.01 in   Drizzle
12:14 PM 37.6 °F - 35.1 °F 91% 30.34 in 10.0 mi Calm Calm - N/A   Drizzle
12:34 PM 38.1 °F - 36.3 °F 93% 30.33 in 10.0 mi Calm Calm - N/A Rain Light Rain
12:54 PM 38.7 °F - 36.0 °F 90% 30.33 in 10.0 mi Calm Calm - N/A Rain Light Rain
1:14 PM 39.2 °F 35.9 °F 36.7 °F 91% 30.32 in 10.0 mi ESE 4.6 mph - 0.01 in Rain Rain
1:34 PM 39.2 °F 35.9 °F 39.2 °F 100% 30.31 in 10.0 mi ESE 4.6 mph - 0.01 in   Light Drizzle
1:53 PM 39.2 °F 37.0 °F 39.4 °F 100% 30.31 in 10.0 mi ESE 3.5 mph - 0.01 in   Overcast
2:14 PM 39.4 °F 37.2 °F 39.6 °F 100% 30.30 in 10.0 mi ESE 3.5 mph - N/A   Light Drizzle
2:34 PM 39.7 °F 36.5 °F 39.9 °F 100% 30.29 in 10.0 mi ESE 4.6 mph - N/A   Overcast
2:54 PM 39.7 °F 36.5 °F 39.6 °F 99% 30.29 in 10.0 mi ESE 4.6 mph - N/A   Overcast
3:14 PM 39.7 °F 36.5 °F 39.4 °F 99% 30.28 in 10.0 mi ESE 4.6 mph - N/A   Light Drizzle
3:34 PM 39.7 °F 36.5 °F 39.4 °F 99% 30.28 in 10.0 mi ESE 4.6 mph - N/A Rain Light Rain
3:54 PM 39.7 °F 36.5 °F 39.4 °F 99% 30.27 in 10.0 mi East 4.6 mph - N/A   Drizzle
4:14 PM 39.7 °F 37.6 °F 39.9 °F 100% 30.27 in 10.0 mi ESE 3.5 mph - N/A Rain Light Rain
4:34 PM - - - N/A% 30.27 in 10.0 mi ESE 4.6 mph - N/A   Light Drizzle
4:54 PM - - - N/A% 30.27 in 10.0 mi East 8.1 mph - N/A   Overcast
5:14 PM 39.6 °F 34.7 °F 39.9 °F 100% 30.27 in 10.0 mi East 6.9 mph - N/A   Overcast
5:34 PM - - - N/A% 30.28 in 10.0 mi East 5.8 mph - N/A   Overcast
5:53 PM 40.1 °F 35.3 °F 40.1 °F 100% 30.28 in 10.0 mi East 6.9 mph - N/A   Overcast
6:14 PM 40.3 °F 35.5 °F 39.7 °F 98% 30.27 in 10.0 mi East 6.9 mph - N/A   Overcast
6:34 PM 40.6 °F 36.0 °F 39.4 °F 95% 30.27 in 10.0 mi East 6.9 mph - N/A   Overcast
6:53 PM 41.0 °F 37.1 °F 39.2 °F 93% 30.27 in 10.0 mi East 5.8 mph - N/A   Overcast
7:14 PM 41.0 °F 38.0 °F 39.0 °F 93% 30.27 in 10.0 mi ESE 4.6 mph - N/A   Overcast
7:34 PM 41.0 °F 38.0 °F 39.6 °F 95% 30.27 in 10.0 mi East 4.6 mph - N/A   Overcast
7:53 PM 41.2 °F 38.2 °F 39.0 °F 92% 30.26 in 10.0 mi East 4.6 mph - N/A   Overcast
8:14 PM 41.5 °F 38.6 °F 39.2 °F 91% 30.25 in 10.0 mi East 4.6 mph - N/A   Overcast
8:34 PM 41.7 °F 39.8 °F 39.0 °F 90% 30.25 in 10.0 mi East 3.5 mph - N/A   Overcast
8:54 PM 41.9 °F 39.0 °F 37.8 °F 85% 30.24 in 10.0 mi East 4.6 mph - N/A Rain Light Rain
9:14 PM 41.9 °F 40.0 °F 38.8 °F 89% 30.24 in 10.0 mi ESE 3.5 mph - N/A Rain Rain
9:34 PM 41.9 °F - 41.7 °F 99% 30.24 in 10.0 mi Calm Calm - 0.01 in   Drizzle
9:54 PM 41.5 °F 39.6 °F 41.7 °F 100% 30.23 in 10.0 mi ESE 3.5 mph - 0.01 in Rain Rain
10:14 PM 41.4 °F 39.4 °F 41.0 °F 99% 30.23 in 10.0 mi ESE 3.5 mph - N/A   Overcast
10:34 PM 41.2 °F 39.2 °F 41.0 °F 99% 30.22 in 10.0 mi East 3.5 mph - N/A   Mostly Cloudy
10:53 PM 41.0 °F 39.0 °F 41.0 °F 100% 30.21 in 10.0 mi East 3.5 mph - N/A   Overcast
11:14 PM 41.2 °F - 41.4 °F 100% 30.20 in 10.0 mi Calm Calm - 0.01 in   Overcast
11:34 PM 41.9 °F - 41.2 °F 97% 30.20 in 10.0 mi Calm Calm - 0.01 in   Overcast
11:54 PM 42.3 °F - 41.4 °F 97% 30.19 in 10.0 mi Calm Calm - 0.01 in Rain Rain